Fort Lewis, WA
on Sunday, January 6, 2013

Sunday
Previous Day Next Day
Daily Summary
 ActualAverage (KOLM)Record (KOLM)
Temperature
Mean Temperature °F 39°F  
Max Temperature 46°F 45°F 56°F (2002)
Min Temperature 35°F 34°F 3°F (1979)
Degree Days
Heating Degree Days 24 26  
Month to date heating degree days 156  
Since 1 July heating degree days 2426  
Cooling Degree Days 0 0  
Month to date cooling degree days 0  
Year to date cooling degree days 0  
Moisture
Dew Point 38°F   
Average Humidity 90    
Maximum Humidity 100    
Minimum Humidity 73    
Precipitation
Precipitation 0.03 in 0.26 in 1.35 in (2002)
Month to date precipitation 1.53  
Year to date precipitation 1.53  
Wind
Wind Speed 7 mph   
Max Wind Speed 13 mph   
Max Gust Speed mph   
Visibility 10 miles   
Events     

Key: T is trace of precipitation, MM is missing value
Source: NWS Daily Summary
Time(PST)TemperatureDew PointHumidity Pressure Visibility Wind DirectionWind SpeedGust SpeedPrecipitationEvents Conditions
12:28 AM 39.2°F 37.4°F 93% 30.15 in 10.0 miles SSE 10.4 mph - N/A   Mostly Cloudy
12:58 AM 37.9°F 36.7°F 95% 30.17 in 10.0 miles SSE 9.2 mph - N/A   Partly Cloudy
1:58 AM 35.6°F 35.1°F 98% 30.18 in 10.0 miles South 8.1 mph - N/A   Clear
2:58 AM 35.6°F 35.4°F 99% 30.19 in 10.0 miles SE 6.9 mph - N/A   Overcast
3:53 AM 35.6°F 35.6°F 100% 30.15 in 10.0 miles SSE 5.8 mph - N/A   Overcast
3:58 AM 36.5°F 36.3°F 99% 30.17 in 10.0 miles SSE 4.6 mph - N/A   Overcast
4:13 AM 35.6°F 35.6°F 100% 30.15 in 10.0 miles SSE 5.8 mph - N/A   Scattered Clouds
4:58 AM 37.0°F 36.7°F 99% 30.16 in 10.0 miles SE 6.9 mph - N/A   Overcast
5:23 AM 37.4°F 37.4°F 100% 30.15 in 10.0 miles SSE 5.8 mph - N/A   Overcast
5:43 AM 37.4°F 37.4°F 100% 30.15 in 10.0 miles SE 5.8 mph - N/A   Overcast
5:58 AM 37.4°F 37.2°F 99% 30.17 in 10.0 miles SE 6.9 mph - N/A   Overcast
6:38 AM 39.2°F 37.4°F 93% 30.15 in 10.0 miles South 5.8 mph - N/A   Overcast
6:58 AM 39.0°F 37.0°F 93% 30.18 in 10.0 miles SSE 5.8 mph - N/A   Overcast
7:28 AM 37.4°F 37.4°F 100% 30.15 in 10.0 miles SE 8.1 mph - N/A   Overcast
7:58 AM 38.5°F 37.2°F 95% 30.18 in 10.0 miles SE 10.4 mph - N/A   Overcast
8:43 AM 39.2°F 37.4°F 93% 30.18 in 10.0 miles SSE 5.8 mph - N/A   Overcast
8:48 AM 39.2°F 37.4°F 93% 30.18 in 10.0 miles SSE 5.8 mph - N/A   Mostly Cloudy
8:49 AM 39.2°F 37.4°F 93% 30.18 in 10.0 miles SSE 5.8 mph - N/A   Light Drizzle
8:58 AM 38.7°F 38.1°F 98% 30.20 in 10.0 miles SSE 6.9 mph - 0.00 in   Light Drizzle
8:59 AM 39.2°F 39.2°F 100% 30.18 in 10.0 miles SSE 6.9 mph - N/A   Overcast
9:14 AM 39.2°F 39.2°F 100% 30.17 in 10.0 miles SE 5.8 mph - N/A   Overcast
9:58 AM 40.8°F 39.9°F 97% 30.20 in 10.0 miles SE 4.6 mph - 0.00 in   Mostly Cloudy
10:58 AM 44.6°F 39.0°F 81% 30.20 in 10.0 miles SSE 9.2 mph - N/A   Mostly Cloudy
11:58 AM 45.3°F 39.7°F 81% 30.17 in 10.0 miles South 5.8 mph - N/A   Overcast
12:28 PM 46.4°F 39.2°F 76% 30.14 in 10.0 miles South 8.1 mph - N/A   Overcast
12:38 PM 46.4°F 39.2°F 76% 30.14 in 10.0 miles South 8.1 mph - N/A   Overcast
12:58 PM 46.0°F 38.8°F 76% 30.16 in 10.0 miles SSW 8.1 mph - N/A   Overcast
1:58 PM 46.0°F 37.8°F 73% 30.14 in 10.0 miles South 12.7 mph - N/A   Mostly Cloudy
2:58 PM 45.5°F 38.3°F 76% 30.14 in 10.0 miles South 9.2 mph - N/A   Overcast
3:58 PM 45.1°F 38.3°F 77% 30.12 in 10.0 miles South 5.8 mph - N/A   Overcast
4:58 PM 44.8°F 37.2°F 75% 30.11 in 10.0 miles South 4.6 mph - N/A   Overcast
5:58 PM 44.2°F 37.6°F 77% 30.10 in 10.0 miles South 8.1 mph - N/A   Scattered Clouds
6:55 PM 42.8°F 37.4°F 81% 30.09 in 10.0 miles Variable 6.9 mph - N/A   Overcast
7:57 PM 42.8°F 37.4°F 81% 30.08 in 10.0 miles SSE 6.9 mph - N/A   Mostly Cloudy
8:41 PM 42.8°F 37.4°F 81% 30.08 in 10.0 miles SSE 6.9 mph - N/A   Mostly Cloudy
8:58 PM 41.5°F 38.8°F 90% 30.06 in 10.0 miles SE 5.8 mph - 0.01 in   Overcast
9:58 PM 41.4°F 39.4°F 93% 30.04 in 10.0 miles ESE 2.3 mph - 0.01 in   Overcast
10:58 PM 40.3°F 39.9°F 99% 30.01 in 10.0 miles SE 6.9 mph - N/A   Overcast
11:58 PM 40.6°F 40.1°F 98% 30.00 in 10.0 miles SE 3.5 mph - 0.01 in   Overcast
Moon Phase
Jan. 06 Jan. 11 Jan. 18 Jan. 26 Feb. 03
Sunrise:07:55 AM (PST) Moon Rise:02:07 AM (PST)1/6
Sunset:04:37 PM (PST) Moon Set:12:15 PM (PST)1/6

Copyright © 2014 The Weather Underground, Inc.